Regional Weather Roundup
Issued by NWS

Home | Current Version | Previous Version | Text Only | Print | Product List | Glossary On
Versions: 1 2 3 4 5 6 7 8 9 10 11 12 13 14 15 16 17 18 19 20 21 22 23 24 25 26 27 28 29 30 31 32 33 34 35 36 37 38 39 40 41 42 43 44 45 46 47 48 49 50
000
ASUS43 KMPX 261901
RWRMN
WEATHER ROUNDUP FOR MINNESOTA
NATIONAL WEATHER SERVICE TWIN CITIES/CHANHASSEN MN
200 PM CDT TUE SEP 26 2017


NOTE: "FAIR" INDICATES FEW OR NO CLOUDS BELOW 12,000 FEET WITH NO
SIGNIFICANT WEATHER AND/OR OBSTRUCTIONS TO VISIBILITY. N/A MEANS
CURRENT SKY AND/OR WEATHER CONDITIONS ARE NOT AVAILABLE.

MNZ060>063-068>070-262000-
   Twin Cities Metro

CITY           SKY/WX    TMP DP  RH WIND       PRES   REMARKS
TWIN CITIES    CLOUDY    62  54  74 W14       29.99S
ST PAUL        CLOUDY    61  54  77 W15       29.99S
CRYSTAL        CLOUDY    61  50  67 W12       29.98S
BLAINE         CLOUDY    63  55  77 NW13G21   29.98S
LAKEVILLE      CLOUDY    61  54  77 W12       30.00S
EDEN PRAIRIE   CLOUDY    63  53  70 W9        29.99S
SOUTH ST PAUL  CLOUDY    63  53  71 W10G17    29.99S
LAKE ELMO      CLOUDY    61  55  82 W10       30.00R
$$
MNZ001>005-007-008-013>017-022>024-027-028-262000-
   Northwest Minnesota

CITY           SKY/WX    TMP DP  RH WIND       PRES   REMARKS
BEMIDJI        DRIZZLE   51  49  96 NW14      30.00F
HALLOCK        LGT RAIN  50  48  93 NW8       30.07F
ROSEAU         RAIN      50  45  81 NW5       30.05S
WARROAD        RAIN      48  46  93 NW7       30.04S
CROOKSTON      LGT RAIN  48  48 100 NW12      30.07F
FOSSTON        DRIZZLE   50  48  93 NW14      30.03F
DETROIT LAKES  CLOUDY    54  50  87 NW10      30.04S
MOORHEAD       CLOUDY    54  48  82 NW13      30.07R
PARK RAPIDS    CLOUDY    56  50  80 N10       30.00S
MAHNOMEN       CLOUDY    52  49  90 NW12      30.02F
$$
MNZ006-009>011-018-025>026-262000-
   North Central Minnesota

CITY           SKY/WX    TMP DP  RH WIND       PRES   REMARKS
BAUDETTE       LGT RAIN  50  49  96 N9        30.01F
FLAG ISLAND    LGT RAIN  48  46  93 N12       30.02F
INTL FALLS     RAIN      51  48  89 NW5       29.98S FOG
WASKISH        LGT RAIN  50  50 100 NW8       30.00S
BIG FORK       DRIZZLE   52  48  87 CALM      29.97S
LONGVILLE      CLOUDY    54  52  94 W7        29.97F FOG
GRAND RAPIDS   LGT RAIN  52  51  97 NW7       29.98R FOG
CRANE LAKE     RAIN      50  48  93 CALM      29.96S
WALKER         CLOUDY    52  50  92 NW9       29.99F
$$
MNZ012-019>021-037-262000-
   Northeast Minnesota

CITY           SKY/WX    TMP DP  RH WIND       PRES   REMARKS
DULUTH         DRZL/FOG  54  54 100 CALM      29.92S VSB 3/4
ELY            DRIZZLE   52  52 100 CALM      29.92S
HIBBING        LGT RAIN  52  50  93 N6        29.93F FOG
EVELETH        DRIZZLE   53  52  97 CALM      29.93F
DULUTH HARBOR  CLOUDY    55  54  94 NE10      29.92S FOG
GRAND MARAIS     N/A     58  53  84 E9        29.88F
$$
MNZ029>031-032-039>041-046>048-054>057-064-262000-
   West Central Minnesota

CITY           SKY/WX    TMP DP  RH WIND       PRES   REMARKS
FERGUS FALLS   CLOUDY    54  52  94 NW14      30.06S
WHEATON        CLOUDY    57  48  72 NW13      30.08F
MORRIS         CLOUDY    55  50  82 NW15      30.06R
ALEXANDRIA     PTSUNNY   59  49  69 W15G22    30.03F
ELBOW LAKE     CLOUDY    54  49  82 NW14      30.06R
WADENA         PTSUNNY   54  48  82 W7        30.00F
GLENWOOD       MOSUNNY   59  52  77 W14       30.03S
APPLETON       CLOUDY    59  48  67 NW12G18   30.06F
BENSON         CLOUDY    59  50  72 NW16      30.07S
ORTONVILLE     CLOUDY    57  48  72 NW15      30.07F
MADISON        CLOUDY    59  52  77 W9        30.08S
WILLMAR        CLOUDY    61  54  77 W12       30.05S
$$
MNZ033>034-036-042>043-049>051-058-059-262000-
   Central Minnesota

CITY           SKY/WX    TMP DP  RH WIND       PRES   REMARKS
ST CLOUD       CLOUDY    60  53  77 NW14      29.99F
SAUK CENTRE    MOCLDY    58  49  73 NW12G17   30.02S
PAYNESVILLE    PTSUNNY   59  51  75 NW12      30.02F
AITKIN         CLOUDY    54  52  94 NW6       29.95F
PINE RIVER     CLOUDY    52  52 100 NW6       30.02F FOG
BRAINERD       CLOUDY    56  52  86 NW13      29.99S
STAPLES        CLOUDY    55  52  88 NW12      30.00S
LITTLE FALLS   CLOUDY    55  46  71 W10G20    30.00S
LITCHFIELD     MOSUNNY   63  54  72 NW13      30.02S
BUFFALO        CLOUDY    60  51  71 W12       30.01S
MAPLE LAKE     CLOUDY    61  53  74 W9        30.02R
HUTCHINSON     CLOUDY    63  53  69 NW9       30.03S
$$
MNZ037-044-045-052-053-262000-
   East Central Minnesota

CITY           SKY/WX    TMP DP  RH WIND       PRES   REMARKS
PRINCETON      CLOUDY    63  54  72 W10       29.99R
MORA           CLOUDY    57  50  77 NW9G16    29.98R
RUSH CITY      PTSUNNY   61  55  78 W7        29.96S
MOOSE LAKE     CLOUDY    55  54  94 NW7       29.92S
HINCKLEY       CLOUDY    61  55  82 W6        29.94S
CLOQUET        LGT RAIN  55  54  94 CALM      29.93S
MCGREGOR       CLOUDY    55  54  94 NW7       29.95F
$$
MNZ071>073-080-081-089-090-097-098-262000-
   Southwest Minnesota

CITY           SKY/WX    TMP DP  RH WIND       PRES   REMARKS
MONTEVIDEO     CLOUDY    57  57 100 N9        30.08R
GRANITE FALLS  CLOUDY    59  51  74 W15       30.09R
CANBY          CLOUDY    58  49  74 W12       30.10S
MARSHALL       CLOUDY    57  49  74 NW13      30.08R
REDWOOD FALLS  CLOUDY    62  50  64 NW12      30.05R
OLIVIA         CLOUDY    59  52  77 NW15      30.04R
PIPESTONE      CLOUDY    55  48  76 NW10      30.10F
WORTHINGTON    CLOUDY    57  50  77 W16       30.10R
JACKSON        CLOUDY    61  50  67 NW9       30.08S
TRACY          CLOUDY    59  52  77 NW10      30.08S
SLAYTON        CLOUDY    57  43  58 W10G17    30.11R
$$
MNZ065>067-074>077-082>085-091>093-262000-
   South Central Minnesota

CITY           SKY/WX    TMP DP  RH WIND       PRES   REMARKS
MANKATO        CLOUDY    60  53  77 W14       30.04S
NEW ULM        PTSUNNY   63  52  67 W14G20    30.03F
ST JAMES       PTSUNNY   64  52  63 W9G18     30.06S
FAIRMONT       CLOUDY    62  52  69 NW12      30.06F
FARIBAULT      PTSUNNY   63  55  77 W12G18    30.03R
OWATONNA       CLOUDY    59  55  88 W13G18    30.03S
WASECA         PTSUNNY   59  52  77 W13G18    30.05S
ALBERT LEA     CLOUDY    63  57  82 NW9G17    30.04S
$$
MNZ078>079-086>088-094>096-262000-
   Southeast Minnesota

CITY           SKY/WX    TMP DP  RH WIND       PRES   REMARKS
ROCHESTER      CLOUDY    61  55  81 NW10      30.02S
RED WING       CLOUDY    63  54  72 W10       29.97S
STANTON        CLOUDY    63  54  73 W13       30.00R
DODGE CENTER   CLOUDY    61  54  77 W14       30.02S
WINONA         CLOUDY    63  55  77 NW12G17   29.99R
AUSTIN         CLOUDY    61  54  77 NW13      30.02F
PRESTON        CLOUDY    60  54  80 NW14      30.02R
$$
ABBREVIATIONS USED IN REMARKS
   TC - TEMPERATURES IN CELSIUS
  WCI - WIND CHILL INDEX
   HX - HEAT INDEX
  VSB - VISIBILITY
$$



USA.gov is the U.S. government's official web portal to all federal, state and local government web resources and services.